OpenBCM V1.07b12 (Linux)

Packet Radio Mailbox

SR1BSZ

[Szczecin_PL JO73GK]

 Login: GUEST





  
I0OJJ  > KEPS     05.09.25 23:08z 316 Lines 15000 Bytes #11 (0) @ AMSAT
BID : ORB25248.1
Read: GUEST
Subj: 2Line Orbital Elements 25248.AMSAT
Path: SR1BSZ<EA2RCF<I0OJJ
Sent: 250905/0025z @:I0OJJ.ITA.EU [Rome] obcm1.08-10-g596e
From: I0OJJ @ I0OJJ.ITA.EU (Gustavo)
To:   KEPS @ AMSAT
X-Info: This message was generated automatically


QST de W1STR

AMSAT Orbital Elements for Amateur Satellites in TLE Format
From Orbital Analysis Office
New England Sci-Tech STEM Education Center
Natick MA September 05, 2025
To all radio amateurs


These element sets describe the orbits of various satellites 
in use by the amateur radio community. For details see:
www.amsat.org/keplerian-elements-formats/

A daily update of element sets is available at:
www.amsat.org/tle/daily-bulletin.txt
or without bulletin text:
www.amsat.org/tle/dailytle.txt


AO-07
1 07530U 74089B   25247.29571624 -.00000026  00000-0  12951-3 0  9999
2 07530 101.9976 252.4926 0012024 318.2956  53.4295 12.53691228324694
UO-11
1 14781U 84021B   25247.12676442  .00003094  00000-0  32933-3 0  9997
2 14781  97.7628 211.8332 0009173  57.6983 302.5122 14.89629258214523
AO-27
1 22825U 93061C   25247.14098338  .00000219  00000-0  10061-3 0  9997
2 22825  98.7293 309.0977 0007784 212.9109 147.1590 14.30824881666097
FO-29
1 24278U 96046B   25247.18369360  .00000022  00000-0  55024-4 0  9998
2 24278  98.5610 129.6319 0350769 118.1163 245.5895 13.53252922434481
NOAA-15
1 25338U 98030A   25247.19577787  .00000295  00000-0  13887-3 0  9998
2 25338  98.5329 270.2312 0011442 104.2930 255.9522 14.27011758420504
GO-32
1 25397U 98043D   25246.95660393  .00000192  00000-0  10312-3 0  9992
2 25397  98.9795 227.9134 0001091  13.6463 346.4744 14.24335462410581
ISS
1 25544U 98067A   25247.10182809  .00011777  00000-0  21333-3 0  9997
2 25544  51.6327 275.9345 0004179 299.5263  60.5309 15.50088696528307
NO-44
1 26931U 01043C   25247.19653745  .00000295  00000-0  14150-3 0  9999
2 26931  67.0490 263.8843 0006989 275.6856  84.3449 14.31772152249509
SO-50
1 27607U 02058C   25247.21274349  .00002175  00000-0  28299-3 0  9997
2 27607  64.5538 293.0724 0065343 315.7188  43.8699 14.81847285222065
CO-55
1 27844U 03031E   25246.26044937  .00000736  00000-0  33929-3 0  9991
2 27844  98.6789 253.4389 0008585 303.2106  56.8249 14.24057980150830
CO-57
1 27848U 03031J   25246.95206569  .00000527  00000-0  25170-3 0  9999
2 27848  98.6815 254.0616 0008726 320.2937  39.7602 14.23384157150653
RS-22
1 27939U 03042A   25247.26613744  .00002240  00000-0  36032-3 0  9997
2 27939  98.3355  58.8615 0012615  94.9045  77.9211 14.72553996173452
CO-58
1 28895U 05043F   25247.16967933  .00003154  00000-0  51812-3 0  9991
2 28895  98.2614  32.6726 0015063  36.7616 323.4620 14.71297401 59677
CO-65
1 32785U 08021C   25247.24900199  .00008063  00000-0  56791-3 0  9998
2 32785  97.7939 219.1379 0007227 281.5650  78.4765 15.05278545942114
CO-66
1 32791U 08021J   25247.22786193  .00018872  00000-0  85867-3 0  9994
2 32791  97.7344 229.3508 0002815 182.4669 177.6552 15.20762937943651
RS-30
1 32953U 08025A   25247.23878372  .00000007  00000-0 -21754-4 0  9998
2 32953  82.5071 173.2962 0018157 214.3729 145.6177 12.43167902784169
NOAA-19
1 33591U 09005A   25247.20618640  .00000221  00000-0  14137-3 0  9996
2 33591  98.9904 312.3694 0014751 117.5960 242.6712 14.13403293854086
SRMSAT
1 37841U 11058D   25247.00642532  .00000542  00000-0  15053-3 0  9998
2 37841  19.9734 351.5364 0011679 296.3664 221.6789 14.11460357717333
ZACUBE-1
1 39417U 13066B   25247.14661419  .00008006  00000-0  67960-3 0  9997
2 39417  97.7858 203.7736 0045045 121.8806 238.6811 14.97382590637869
Delfi-N3xt
1 39428U 13066N   25247.19284344  .00011989  00000-0  11837-2 0  9997
2 39428  97.8289 163.9069 0085250  75.4877 285.5778 14.89377004631963
GOMX-1
1 39430U 13066Q   25247.26749078  .00002951  00000-0  46149-3 0  9992
2 39430  97.6744 100.5915 0130283 275.0436  83.5910 14.67953560627943
LO-74
1 39440U 13066AA  25247.29527192  .00004903  00000-0  49046-3 0  9995
2 39440  97.8527 191.3074 0059553 253.4330 106.0342 14.90584981634358
AO-73
1 39444U 13066AE  25246.83855801  .00013256  00000-0  95813-3 0  9993
2 39444  97.7899 209.1720 0043152  95.3563 265.2587 15.03421476636544
DTUSAT-2
1 40030U 14033W   25247.17191685  .00011087  00000-0  69715-3 0  9994
2 40030  98.0625 223.2793 0010861 121.9442 238.2843 15.09367033609457
EO-80
1 40032U 14033Y   25247.18774517  .00010871  00000-0  68208-3 0  9994
2 40032  98.0514 222.8299 0010541  74.0136 286.2252 15.09456247609436
LILACSAT-2
1 40908U 15049K   25247.23530561  .00016761  00000-0  40963-3 0  9991
2 40908  97.5040 269.7738 0008394 195.3920 164.7072 15.40860078551561
IO-86
1 40931U 15052B   25151.18580175  .00001241  00000-0  78118-4 0  9996
2 40931   6.0006  24.0987 0012733 338.8432  21.1169 14.78805930523159
Horyu-4
1 41340U 16012D   25247.27627175  .00035400  00000-0  83177-3 0  9990
2 41340  30.9956 267.4070 0006776 236.9255 123.0741 15.40753634526155
Lapan A3
1 41603U 16040E   25247.28205453  .00005260  00000-0  18100-3 0  9990
2 41603  97.1409 248.5324 0009559 328.9704  31.0971 15.30436051511045
CAS-2T
1 41847U 16066G   25247.18235133  .00001395  00000-0  20839-3 0  9992
2 41847  98.4143 320.8769 0344184 276.4885  79.7233 14.43689038463510
CAS-4B
1 42759U 17034B   25247.76941868  .00210927  00000-0  10900-2 0  9994
2 42759  43.0015 157.2653 0022424 193.8896 166.1360 15.79352691456308
CAS-4A
1 42761U 17034D   25247.19691775  .00244594  00000-0  11065-2 0  9993
2 42761  43.0051 156.5424 0023012 195.5483 164.4684 15.82110580456240
TechnoSat
1 42829U 17042E   25247.18599345  .00005384  00000-0  41090-3 0  9990
2 42829  97.4006  51.8085 0017299 356.9247   3.1870 15.02271999443728
AO-91
1 43017U 17073E   25247.20349030  .00010400  00000-0  52045-3 0  9998
2 43017  97.5106 115.8031 0167449 230.8599 127.7646 15.06098796422249
S-Net D
1 43186U 18014G   25247.18341278  .00007599  00000-0  43828-3 0  9998
2 43186  97.5523 149.2036 0006948 292.2051  67.8443 15.12632977415463
S-Net B
1 43187U 18014H   25247.18995305  .00007766  00000-0  44799-3 0  9999
2 43187  97.5526 149.1863 0007610 285.9310  74.1082 15.12612413415461
S-Net A
1 43188U 18014J   25246.72042897  .00010285  00000-0  59156-3 0  9991
2 43188  97.5532 148.8830 0007519 288.8902  71.1513 15.12633383415393
S-Net C
1 43189U 18014K   25247.19256220  .00007759  00000-0  44754-3 0  9991
2 43189  97.5554 149.3796 0008966 277.2295  82.7916 15.12608991414019
Ten-Koh
1 43677U 18084G   25247.07295550  .00004303  00000-0  34243-3 0  9990
2 43677  98.0820  62.7572 0006194 345.1892  14.9149 15.00958346373212
PO-101
1 43678U 18084H   25247.26212447  .00004029  00000-0  34002-3 0  9994
2 43678  98.1104  66.7412 0008838  13.2587 346.8865 14.98713366373362
QO-100
1 43700U 18090A   25247.23447429  .00000143  00000-0  00000-0 0  9995
2 43700   0.0167 222.3507 0001182 320.0044 271.5036  1.00274074 24809
MinXSS-2
1 43758U 18099A   25247.16334483  .00025371  00000-0  91774-3 0  9995
2 43758  97.4950 313.5919 0011013 203.8922 156.1808 15.28359668370187
AO-95
1 43770U 18099N   25247.13882376  .00014304  00000-0  69095-3 0  9990
2 43770  97.4843 304.3120 0008774 269.2716  90.7513 15.18719831369681
SNUSat 2
1 43782U 18099AA  25247.12150653  .00011732  00000-0  61634-3 0  9991
2 43782  97.4523 300.3251 0011216 206.4500 153.6162 15.15798758369602
SnugLite
1 43784U 18099AC  25247.14994063  .00014628  00000-0  69996-3 0  9992
2 43784  97.4342 300.1041 0003221 185.8116 174.3082 15.19069497369772
ITASat 1
1 43786U 18099AE  25247.09482799  .00011372  00000-0  62903-3 0  9990
2 43786  97.4496 299.5456 0012501 265.9807  93.9996 15.13961569369543
EAGLET 1
1 43790U 18099AJ  25247.13159331  .00006313  00000-0  39472-3 0  9997
2 43790  97.4695 299.2358 0010303 248.8163 111.1966 15.09737808369126
ESEO
1 43792U 18099AL  25247.09737305  .00002504  00000-0  19073-3 0  9990
2 43792  97.4391 291.2904 0010955 223.4051 136.6313 15.02903664368819
JO-97
1 43803U 18099AX  25247.12336988  .00019959  00000-0  85683-3 0  9991
2 43803  97.4588 305.4931 0007181 190.8975 169.2107 15.22715420369937
Suomi 100
1 43804U 18099AY  25247.21901549  .00013945  00000-0  64975-3 0  9993
2 43804  97.4658 304.6203 0011703 198.6514 161.4294 15.19949578369850
ISAT
1 43879U 18111D   25247.20455444  .00031105  00000-0  96627-3 0  9994
2 43879  97.5878 163.6679 0005564 237.2166 122.8541 15.33288090366953
UWE-4
1 43880U 18111E   25247.23589954  .00023604  00000-0  85263-3 0  9992
2 43880  97.5820 161.5261 0008695 262.8786  97.1464 15.28443565366857
Sparrow
1 43881U 18111F   25247.04625138  .00035984  00000-0  10666-2 0  9995
2 43881  97.6039 166.7395 0003405 300.7782  59.3126 15.34754278367037
Prox-1
1 44339U 19036A   25247.28226416  .00015167  00000-0  18481-2 0  9997
2 44339  23.9951 211.5959 0006529 340.0870  19.9372 14.81672446330886
Taurus 1
1 44530U 19059C   25247.32299311  .00010000  00000-0  17961-2 0  9997
2 44530  98.6151  30.9324 0009872 125.8454 234.3667 14.66862044316657
Duchifat 3
1 44854U 19089C   25247.12388333  .00106011  00000-0  15035-2 0  9998
2 44854  36.9385 161.9019 0008577 281.5730  78.4066 15.55154008316455
TO-108
1 44881U 19093C   25247.24033206  .00001706  00000-0  20229-3 0  9999
2 44881  97.7870 321.0613 0012581 311.0387  48.9741 14.85766020308947
FloripaSat 1
1 44885U 19093G   25247.26724250  .00009151  00000-0  75209-3 0  9991
2 44885  97.8165 335.0811 0007593 276.8431  83.1928 14.99366871309730
RS-44
1 44909U 19096E   25247.25694756  .00000016  00000-0  96008-5 0  9990
2 44909  82.5254 169.7031 0218527  92.8594 269.7538 12.79743078265778
UPMSat 2
1 46276U 20061E   25247.20029395  .00212189  00000-0  86290-3 0  9995
2 46276  97.2338 325.3164 0002665 224.3681 135.7377 15.85653637279109
SALSAT
1 46495U 20068K   25246.93247901  .00011240  00000-0  46742-3 0  9992
2 46495  97.8680 229.0558 0009930 212.6744 147.3879 15.23921643271674
